User: anonymous
Location: Unspecified
(0.0000°N, 0.0000°E)
Time: 15:42:33
(UTC+02:00)
Language:

Delta 168 - Orbit

View from above orbital plane
View from above orbital plane
View from above satellite
View from above satellite

Ground track
Ground track

The orbit data is extracted from the following two-line orbital elements,

1 14051U 83041B   14105.11928076  .00005678  00000-0  55869-3 0  4966
2 14051 025.3365 343.9501 1133173 342.6954 184.5245 13.00187251426867
Epoch (UTC): 15 April 2014 02:51:45
Eccentricity: 0.1133173
inclination: 25.3365°
perigee height: 395 km
apogee height: 2127 km
right ascension of ascending node: 343.9501°
argument of perigee: 342.6954°
revolutions per day: 13.00187251
mean anomaly at epoch: 184.5245°
orbit number at epoch: 42686

The dashed part of the orbit path shows where the satellite is in the earth's shadow,  

DLR